Погода в Шехмани

Россия / Тамбовская область     52°30′50″N   40°27′38″E
темп.,
°C
ветер,
м/с
пор.,
м/с
влажн.,
%
обл.,
%
осадки,
мм/ч
давл.,
гПа
погр.,
м
20 апреля, вт
вт2000:00+8в6108098 0.0 1018594
03:00+8всв61081100 0.0 1017629
06:00+7в61088100 0.1 1017661
09:00+5в71187100 0.9 1016661
12:00+5в71287100 0.1 1016674
15:00+5в71288100 0.6 1014675
18:00+5в81592100 1.4 1010694
21:00+5в101893100 7.1 1006651
21 апреля, ср
ср2100:00+6вюв269788 7.3 1002217
03:00+8ююв7159597 7.8 1002665
06:00+8ю71290100 0.1 1003893
09:00+9ю61189100 0.5 10041069
12:00+7зюз71080100 0.4 1008771
15:00+9зюз6976100 0.4 10111050
18:00+9юз3680100 0.1 1013630
21:00+7ююз489051 0.1 1015215
22 апреля, чт
чт2200:00+6ю3894100 0.2 1015187
03:00+5юз38955 0.2 1017220
06:00+4юз35945 0.0 1018144
09:00+9юз35715 0.0 1019639
12:00+12зюз575669 0.0 10201601
15:00+12юз3657100 0.1 10201127
18:00+13ю3763100 0.0 1020312
21:00+9ю347552 0.0 102062
23 апреля, пт
пт2300:00+8ю378536 0.0 1020126
03:00+8ю478761 0.0 1020111
06:00+8ю378433 0.0 1020132
09:00+14ююз586155 0.0 1020491
12:00+17ю6742100 0.0 10192478
15:00+16ю574794 0.0 10181895
18:00+15ююв47565 0.2 1017340
21:00+11юв497838 1.3 1017182
24 апреля, сб
сб2400:00+9ююв410855 0.0 1016191
03:00+8ююв4108854 0.0 1014179
06:00+8ююв368844 0.0 1013131
09:00+12ю5870100 0.0 1012721
12:00+10зюз7983100 1.9 1012705
15:00+5сз5989100 4.4 1013573
18:00+8сз367272 0.1 1013859
21:00+6з22820 0.1 101313